ASIASAT 3S

Last updated on Nov. 12, 2019, 4:19 a.m. UTC

1 25657U 99013A   19315.29835730 -.00000212  00000-0  00000+0 0  9998
2 25657   4.3215  73.7387 0002601 158.6832  72.6621  1.00270635 75650
UTC
Height (km)
Latitude
Longitude
Inclination
Orbital Period
UTC large
Height (km)
Speed (km/s)
/
Latitude / Longitude
Inclination (degrees)
Orbital Period (minutes)
Azimuth
Elevation
Range (km)
Doppler Factor
iOS Compass Heading
iOS Angle

Next 30 passes for location: Hong Kong

Rise time Rise Azimuth (degrees) Set time Set Azimuth (degrees) Duration Max altitude (degrees)

No matching passes for this satellites